Find Equator-S

NORAD ID: 25068 Int'l Des: 1997-075 Owner: MPE Country: D operational
MEOELLIPTICALHEO_ELLIPTICAL

現在のビュー

3D地球を読み込み中...

About Equator-S

Equator-S (NORAD 25068) is a satellite launched Dec 2, 1997 by MPE of D. It operates in MEO, ELLIPTICAL, HEO_ELLIPTICAL orbit with a mass of 197.00 kg.

次回通過

Passes for default location (London). Set your location on the main map for personalized predictions.

高度履歴

Loading altitude history...

軌道要素

1 25068U 97075B 26195.09479315 -.00000076 00000-0 17271-3 0 9995
2 25068 3.6454 246.4758 8279820 359.5921 0.4738 1.07779273112752
Epoch: Jul 14, 2026 • Age: 12 hours

現在のステータス

高度 66569.5 km
遠地点 / 近地点 N/A
速度 1.00 km/s
衛星直下点 -0.17°S, 81.09°W
打ち上げ日 Dec 2, 1997
運用期間 28.6 years
タイプ other

技術仕様

分類 Payload
質量 197.00 kg
乾燥質量 197.00 kg
総質量 230.00 kg
長さ 1.30 m
直径 1.50 m
スパン 5.00 m
形状 Cyl + 2 Ant
製造者 MPE
バスタイプ Equator-S
フェーズステータス In Orbit
所有者/国 MPE/D

Most Searched